Flag for U.S.A. Weather past 2 weeks in Hollywood, California, U.S.A.

Now
70 °F

Overcast.


Feels Like: 70 °F
Forecast: 63 / 84 °F
Wind: 3 mph from East

Location: Van Nuys Airport

Current Time: Sep 1, 2014 at 4:29:34 AM

Latest Report: Sep 1, 2014 at 3:51 AM


Visibility: 8 mi

Pressure: 29.78 "Hg

Humidity: 81%

Dew point: 64 °F

Location of HollywoodLocation

Historic Weather in Hollywood — Graph

°F

Hollywood temperature yesterday

Maximum temperature yesterday: 91 °F (at 2:51 PM)
Minimum temperature yesterday: 69 °F (at 5:51 AM)
Average temperature yesterday: 78 °F

Past Weeks' High & Low Weather Summary

 TemperatureHumidityPressure
High100 °F (Aug 28, 1:51 PM)87% (Aug 23, 2:51 AM)30.02 "Hg (Aug 23, 2:51 AM)
Low62 °F (Aug 25, 6:51 AM)10% (Aug 28, 6:51 PM)29.70 "Hg (Aug 30, 5:51 PM)
Average77 °F49%29.87 "Hg
* Reported Aug 17 2:51 AM — Sep 1 2:51 AM, Hollywood, Weather by CustomWeather, © 2014

Note: Actual official high and low records may vary slightly from our data, if they occured in-between our weather recording intervals... More about our weather records

Advertising

Hollywood weather history for previous 24 hours

 ConditionsComfort  
Time TempWeatherWind HumidityBarometerVisibility
2:51 AM
Sep 1
70 °FOvercast.7 mph81%29.79 "Hg9 mi
1:51 AM71 °FPassing clouds.3 mph81%29.79 "Hg10 mi
12:51 AM71 °FPassing clouds.3 mph81%29.80 "Hg9 mi
11:51 PM
Aug 31
71 °FClear.5 mph78%29.79 "Hg10 mi
10:51 PM72 °FClear.3 mph68%29.79 "Hg10 mi
9:51 PM75 °FClear.5 mph58%29.79 "Hg10 mi
8:51 PM76 °FClear.5 mph50%29.78 "Hg10 mi
7:51 PM77 °FScattered clouds.7 mph54%29.75 "Hg10 mi
6:51 PM81 °FSunny.8 mph47%29.74 "Hg10 mi
5:51 PM86 °FSunny.12 mph35%29.73 "Hg10 mi
4:51 PM89 °FSunny.12 mph32%29.72 "Hg10 mi
3:51 PM90 °FSunny.12 mph33%29.73 "Hg10 mi
2:51 PM91 °FSunny.10 mph36%29.75 "Hg10 mi
1:51 PM89 °FSunny.7 mph39%29.77 "Hg10 mi
12:51 PM88 °FSunny.9 mph40%29.78 "Hg10 mi
11:51 AM87 °FSunny.No wind39%29.80 "Hg10 mi
10:51 AM82 °FSunny.No wind46%29.81 "Hg10 mi
9:51 AM78 °FSunny.No wind56%29.82 "Hg10 mi
8:51 AM72 °FSunny.No wind71%29.82 "Hg7 mi
7:51 AM70 °FSunny.5 mph79%29.81 "Hg7 mi
6:51 AM69 °FClear.3 mph76%29.80 "Hg10 mi
5:51 AM69 °FClear.3 mph76%29.78 "Hg10 mi
4:51 AM71 °FClear.No wind68%29.77 "Hg10 mi
Weather by CustomWeather, © 2014

See weather overviewHow to use our weather pages